Location: B?dargowo
(53.3916°N, 14.4413°E)
Time: 16:29:12
(UTC+00:00)

CZ-4B R/B - Visible Passes

Search period start: 30 September 2023 00:00
Search period end: 10 October 2023 00:00
Orbit: 469 x 633 km, 97.9° (Epoch: 29 September)

Date Brightness Start Highest point End Pass type
(mag) Time Alt. Az. Time Alt. Az. Time Alt. Az.
30 Sep 5.5 18:29:01 10° SW 18:31:30 18° W 18:34:00 10° NW visible
01 Oct 5.3 18:24:49 10° SW 18:27:27 20° W 18:30:07 10° NW visible
02 Oct 5.2 18:20:36 10° SSW 18:23:23 22° W 18:26:12 10° NW visible
03 Oct 5.0 18:16:25 10° SSW 18:19:18 24° W 18:22:15 10° NW visible
04 Oct 4.8 18:12:13 10° SSW 18:15:13 26° W 18:18:17 10° NW visible
05 Oct 4.6 18:08:01 10° SSW 18:11:07 29° W 18:14:17 10° NNW visible
06 Oct 4.4 18:03:49 10° SSW 18:07:00 32° W 18:10:16 10° NNW visible
07 Oct 4.2 17:59:36 10° SSW 18:02:52 36° W 18:06:14 10° NNW visible
08 Oct 4.0 17:55:25 10° S 17:58:45 40° W 18:02:11 10° NNW visible
09 Oct 3.8 17:51:12 10° S 17:54:36 44° W 17:58:07 10° NNW visible
